SL-14 R/B, 22784

Orbit data source: Space-Track

SL-14 R/B, 22784 is space debris in LEO originally from a launch on Tue, 31 Aug 1993 UTC launched from the Plesetsk Missile And Space Complex (PKMTR). Debris objects in space refer to the collection of defunct objects orbiting the Earth. Examples of debris include non-operational satellites, rocket bodies, and fragments generated from explosions, collisions, or faulty payload assembly.

Loading next visibility...
SL-14 R/B details
Identifier
22784, 1993-055C
Orbit
LEO
Last TLE update11 hours ago
Origin
Flag of CISVKS (CIS)
ManufacturerYuzhnoe
MissionSpacecraft
Bus & MotorS5M, Unknown motor
Mass1,600 kg wet, 1,600 kg dry
Launch date (UTC)
1993-08-31 (31 years ago)
Launch vehicleUnknown
Launch site
Plesetsk Missile And Space Complex (PKMTR)
Object type
Payload
Rocket body
Debris
Shape & HBRCyl, 2.7 m
Radar Cross Section7.351 m², Large (>1 m²)

Expand to show TLE details & history

TLE from 11 hours ago
0 SL-14 R/B
1 22784U 93055C   24361.26536170  .00000079  00000-0  58581-4 0  9998
2 22784  82.5502   6.5131 0020745 292.5338  77.9521 13.83517793581342
Epoch: 2024-12-26T06:22Z
Definitive object data (Epoch: 2024-12-26T06:22:07.25Z)
Latitude10.57612°
Longitude177.12737°
Altitude950.443 km
Speed7.379 km/s
True Right ascension00h 31m 37s
True Declination10° 30' 57"
Sunlit
Object was in daylight at TLE epoch
Visualization TLE readout
Latitude69.14403°
Longitude-24.58874°
Altitude978.594 km
Speed7.361 km/s
Apparent Right ascension06h 36m 18s
Apparent Declination27° 46' 27"
Sunlit
Object is in daylight
Visualization observer readout
Local Sidereal Time16:37:56
Azimuth332.826° NNW
Elevation-16.924°
Doppler factor1
Orbital elements
Apogee altitude963.788 km
Perigee altitude933.389 km
Semi-major axis7,326.725 km
Eccentricity0.0020745
Inclination82.5502°
RAAN6.5131°
Arg. of periapsis292.5338°
True anomaly78.18471°
Mean anomaly77.9521°
Eccentric anomaly78.06839°
Mean motion3.46081 °/min
BSTAR0.000058581
Orbital period104.02 mins
Loading maneuver chart data...
Loading historical data...
Loading historical data...
Loading historical data...
Loading historical data...
Loading historical data...
Loading historical data...
Loading historical data...
Other satellites on launch #55 in the year 1993 (1993-08-31 UTC)

SL-14 R/B Visibility forecast

Observer location: undefined°, undefined

Span
Click to sort rows by Start time (UTC) header in descending order
Start Az.
Max El. time (UTC)
Max El. Az.
Max El.
End time (UTC)
End Az.
5 mins2024-12-26 23:49:38.565Z107.987° ESE2024-12-26 23:52:38.565Z76.392° E14.469°2024-12-26 23:54:38.565Z55.789° ENE
10 mins2024-12-27 01:31:38.565Z195.191° SSW2024-12-27 01:36:38.565Z305.315° NW43.56°2024-12-27 01:41:38.565Z2.828° NNE
10 mins2024-12-27 12:25:38.565Z353.617° N2024-12-27 12:29:38.565Z11.332° NNE44.757°2024-12-27 12:35:38.565Z173.129° S
|